Regional Weather Roundup
Issued by NWS

Home | Current Version | Previous Version | Text Only | Print | Product List | Glossary Off
Versions: 1 2 3 4 5 6 7 8 9 10 11 12 13 14 15 16 17 18 19 20 21 22 23 24 25 26 27 28 29 30 31 32 33 34 35 36 37 38 39 40 41 42 43 44 45 46 47 48 49 50

000
ASUS43 KIND 301859
RWRIN

WEATHER ROUNDUP FOR INDIANA
NATIONAL WEATHER SERVICE INDIANAPOLIS IN
300 PM EDT SUN APR 30 2017

NOTE: "FAIR" INDICATES FEW OR NO CLOUDS BELOW 12,000 FEET WITH NO
SIGNIFICANT WEATHER AND/OR OBSTRUCTIONS TO VISIBILITY.

* - STATION DOES NOT REPORT WEATHER SUCH AS PRECIPITATION OR FOG.

+ - STATION NOT QUALITY CONTROLLED BY THE NATIONAL WEATHER SERVICE.
    USE DATA WITH CAUTION...ESPECIALLY DEWPOINT AND RELATIVE
    HUMIDITY OBSERVATIONS.

INZ001>003-010>013-019-020-302000-
NORTHWEST INDIANA

CITY           SKY/WX    TMP DP  RH WIND       PRES   REMARKS
GARY /AIRPORT/ CLOUDY    46  46 100 N7G20     29.82R FOG
MONTICELLO +   LGT RAIN  65  63  94 S5        29.77F
RENSSELAER +   DRIZZLE   64  61  88 SW5       29.78S

$$

LMZ046-743>745-302000-
SOUTHERN LAKE MICHIGAN

STATION/POSITION TIME  TEMP    WIND        PRES    WAVE
                       AIR SEA DIR/SP/G            HT
                 (UTC) (F)     (DEG/KT/KT) (MB)    (FT)
BURNS HARBOR     1840   45     360/  5/  6 1010.2R
MICHIGAN CITY    1830   46     350/ 10/ 11   N/A
5NW MICH CITY    1850   44 49                N/A     3

$$

INZ004-005-014>016-021>024-302000-
NORTH CENTRAL INDIANA

CITY           SKY/WX    TMP DP  RH WIND       PRES   REMARKS
ELKHART        CLOUDY    66  61  82 S9        29.80R
GOSHEN         RAIN      65  61  87 S9        29.81R FOG
PERU/GRISSOM   CLOUDY    68  68 100 S13G23    29.81S
SOUTH BEND     CLOUDY    67  61  81 SW16      29.79R

$$

INZ006>009-017-018-025>027-302000-
NORTHEAST INDIANA

CITY           SKY/WX    TMP DP  RH WIND       PRES   REMARKS
ANGOLA *+      CLOUDY    57  48  72 SE5       29.84R
FORT WAYNE     CLOUDY    70  62  76 SW13      29.85R
KENDALLVILLE + RAIN      61  61 100 SE6       29.84S

$$

INZ028-029-035-036-043>045-051>053-302000-
WEST CENTRAL INDIANA

CITY           SKY/WX    TMP DP  RH WIND       PRES   REMARKS
CRAWFORDSVL +  LGT RAIN  63  63 100 S12       29.80F
GREENCASTLE +  LGT RAIN  63  63 100 S7        29.82F
LAFAYETTE      LGT RAIN  65  63  93 S8        29.79S
TERRE HAUTE    CLOUDY    66  64  93 S13       29.79F

$$

INZ030>032-037>040-046>048-054>057-064-065-302000-
CENTRAL INDIANA

CITY           SKY/WX    TMP DP  RH WIND       PRES   REMARKS
COLUMBUS       CLOUDY    75  64  69 S22G29    29.82F
FRANKFORT +    RAIN      68  65  89 SW16      29.84S
INDIANAPOLIS   LGT RAIN  65  63  93 S9        29.84F FOG
-EAGLE CREEK   LGT RAIN  66  63  90 SW6       29.83F
KOKOMO +       CLOUDY    68  64  87 S15G24    29.84S
SHELBYVILLE    HVY RAIN  68  62  81 W14G21    29.84R

$$

INZ033-034-041-042-049-050-058-059-302000-
EAST CENTRAL INDIANA

CITY           SKY/WX    TMP DP  RH WIND       PRES   REMARKS
MUNCIE         LGT RAIN  70  63  78 W8        29.85R
RICHMOND +     CLOUDY    72  66  83 S17       29.87F

$$

INZ060-061-067>069-081>083-085>088-302000-
SOUTHWEST INDIANA

CITY           SKY/WX    TMP DP  RH WIND       PRES   REMARKS
EVANSVILLE     CLOUDY    70  68  93 SE6       29.77F

$$

INZ062-063-066-070>080-084-089>092-302000-
SOUTH CENTRAL AND SOUTHEAST INDIANA

CITY           SKY/WX    TMP DP  RH WIND       PRES   REMARKS
BLOOMINGTON    HVY RAIN  64  62  93 W5        29.84F FOG
MADISON *+     CLOUDY    77  63  61 S14G21    29.87F
SEYMOUR +      CLOUDY    79  66  65 S14G23    29.82F

$$




USA.gov is the U.S. government's official web portal to all federal, state and local government web resources and services.